This demonstration page uses our WeatherBlox Daily Observations layout. Learn more.

39.01783, -85.05884

Hourly Observations for November 29, 2019

Temp ( °F °C ) Dew Point ( °F °C ) Humidity (%) Winds ( mph kmh ) Pressure ( in mb ) Visibility ( mi km ) Precip ( " mm )
12:43 am 00:43 Cloudy 37 2.8 28 -2.2 70 70 WSW 3 6 30.44 1031 10 16.0934 0 0
12:52 am 00:52 Cloudy 36 2.2 29 -1.7 76 76 Calm 30.41 1030 10 16.0934 0 0
1:02 am 01:02 Cloudy 37 2.8 29 -1.7 73 73 Calm 30.43 1030 10 16.0934 0 0
1:52 am 01:52 Cloudy 38 3.3 28 -2.2 68 68 Calm 30.4 1029 10 16.0934 0 0
3:52 am 03:52 Cloudy 38 3.3 28 -2.2 68 68 NE 7 11 30.38 1029 10 16.0934 0.001 0.001
4:52 am 04:52 Cloudy 37 2.8 29 -1.7 73 73 E 6 9 30.37 1028 10 16.0934 0 0
5:52 am 05:52 Cloudy 36 2.2 29 -1.7 76 76 E 5 7 30.36 1028 10 16.0934 0 0
6:52 am 06:52 Cloudy 37 2.8 29 -1.7 73 73 E 6 9 30.37 1028 10 16.0934 0 0
7:52 am 07:52 Cloudy with Light Rain 37 2.8 30 -1.1 76 76 ENE 3 6 30.4 1029 10 16.0934 0.001 0.001
8:52 am 08:52 Cloudy 37 2.8 30 -1.1 76 76 E 6 9 30.38 1029 10 16.0934 0.001 0.001
9:52 am 09:52 Cloudy with Light Rain 38 3.3 31 -0.6 76 76 ESE 6 9 30.36 1028 10 16.0934 0.001 0.001
10:52 am 10:52 Cloudy 39 3.9 31 -0.6 73 73 Calm 30.37 1028 10 16.0934 0.001 0.001
11:52 am 11:52 Cloudy 40 4.4 31 -0.6 70 70 NNE 6 9 30.34 1027 10 16.0934 0 0
12:52 pm 12:52 Cloudy 40 4.4 30 -1.1 68 68 ENE 3 6 30.3 1026 10 16.0934 0 0
1:52 pm 13:52 Cloudy 40 4.4 30 -1.1 68 68 Calm 30.26 1025 10 16.0934 0 0
2:52 pm 14:52 Cloudy 41 5 30 -1.1 65 65 E 3 6 30.24 1024 10 16.0934 0 0
3:52 pm 15:52 Cloudy 41 5 31 -0.6 67 67 Calm 30.23 1024 10 16.0934 0 0
4:52 pm 16:52 Cloudy 41 5 30 -1.1 65 65 Calm 30.25 1025 10 16.0934 0 0
5:52 pm 17:52 Cloudy 41 5 31 -0.6 67 67 ENE 6 9 30.23 1024 10 16.0934 0 0
6:52 pm 18:52 Cloudy 40 4.4 31 -0.6 70 70 ENE 6 9 30.22 1023 10 16.0934 0 0
8:52 pm 20:52 Cloudy 40 4.4 31 -0.6 70 70 E 6 9 30.17 1022 10 16.0934 0 0
9:52 pm 21:52 Cloudy 40 4.4 31 -0.6 70 70 ESE 3 6 30.19 1022 10 16.0934 0 0
10:52 pm 22:52 Cloudy 40 4.4 31 -0.6 70 70 ENE 6 9 30.16 1022 10 16.0934 0 0
11:52 pm 23:52 Cloudy 40 4.4 32 0 73 73 E 6 9 30.13 1020 10 16.0934 0 0

Powered by AerisWeather